When you browse on this site, cookies collect data to enhance your experience and personalize the content and advertising you see.
Visit our Privacy Policy to learn more. By continuing to use the site, you agree to this use of cookies and data.
  • In Lithuania
  • List of Countries
  • For 7 days
  • Water Temperature
  • Satellite Maps
  • Weather Map
  • Weather Widgets
  • user-avatar
    Login

    Hourly Weather Golye Bugry

    Today, 22 March, Friday

    Time Temperature Precipitation Wind Pressure Humidity
    00:00 +7°C° 0 mm 2 mps 766 mmHg 60%
    01:00 +7°C° 0.1 mm 3 mps 766 mmHg 63%
    02:00 +7°C° 0.1 mm 3 mps 765 mmHg 66%
    03:00 +5°C° 0.1 mm 3 mps 765 mmHg 68%
    04:00 +5°C° 0 mm 3 mps 765 mmHg 73%
    05:00 +4°C° 0 mm 3 mps 765 mmHg 77%
    06:00 +3°C° 0 mm 3 mps 765 mmHg 82%
    07:00 +4°C° 0 mm 3 mps 766 mmHg 77%
    08:00 +4°C° 0 mm 4 mps 766 mmHg 73%
    09:00 +5°C° 0 mm 4 mps 766 mmHg 68%
    10:00 +6°C° 0 mm 4 mps 766 mmHg 62%
    11:00 +7°C° 0 mm 4 mps 766 mmHg 56%
    12:00 +8°C° 0 mm 4 mps 765 mmHg 51%
    13:00 +8°C° 0 mm 5 mps 765 mmHg 50%
    14:00 +8°C° 0 mm 5 mps 764 mmHg 48%
    15:00 +8°C° 0 mm 5 mps 764 mmHg 47%
    16:00 +8°C° 0 mm 6 mps 763 mmHg 49%
    17:00 +8°C° 0 mm 6 mps 763 mmHg 51%
    18:00 +7°C° 0 mm 6 mps 762 mmHg 53%
    19:00 +7°C° 0.2 mm 6 mps 762 mmHg 57%
    20:00 +5°C° 0.2 mm 7 mps 761 mmHg 61%
    21:00 +5°C° 0.2 mm 7 mps 760 mmHg 66%
    22:00 +4°C° 0.3 mm 8 mps 759 mmHg 69%
    23:00 +4°C° 0.3 mm 8 mps 759 mmHg 72%

    Tomorrow, 23 March, Saturday

    Time Temperature Precipitation Wind Pressure Humidity
    00:00 +3°C° 0.3 mm 9 mps 758 mmHg 75%
    01:00 +4°C° 0.9 mm 8 mps 758 mmHg 75%
    02:00 +4°C° 0.9 mm 6 mps 757 mmHg 75%
    03:00 +5°C° 0.9 mm 5 mps 757 mmHg 75%
    04:00 +3°C° 0 mm 5 mps 757 mmHg 75%
    05:00 +2°C° 0 mm 5 mps 758 mmHg 76%
    06:00 +1°C° 0 mm 4 mps 758 mmHg 76%
    07:00 +1°C° 0 mm 4 mps 758 mmHg 70%
    08:00 +1°C° 0 mm 5 mps 759 mmHg 65%
    09:00 +2°C° 0 mm 5 mps 759 mmHg 59%
    10:00 +3°C° 0 mm 5 mps 760 mmHg 54%
    11:00 +4°C° 0 mm 4 mps 760 mmHg 49%
    12:00 +5°C° 0 mm 4 mps 760 mmHg 44%
    13:00 +5°C° 0.1 mm 4 mps 760 mmHg 44%
    14:00 +5°C° 0.1 mm 3 mps 760 mmHg 44%
    15:00 +7°C° 0.1 mm 3 mps 760 mmHg 44%
    16:00 +5°C° 0 mm 3 mps 760 mmHg 46%
    17:00 +5°C° 0 mm 3 mps 760 mmHg 48%
    18:00 +5°C° 0 mm 3 mps 760 mmHg 50%
    19:00 +5°C° 0 mm 2 mps 761 mmHg 54%
    20:00 +4°C° 0 mm 2 mps 761 mmHg 58%
    21:00 +4°C° 0 mm 2 mps 761 mmHg 62%
    22:00 +3°C° 0 mm 2 mps 762 mmHg 64%
    23:00 +3°C° 0 mm 2 mps 762 mmHg 66%

    Day after tomorrow, 24 March, Sunday

    Time Temperature Precipitation Wind Pressure Humidity
    00:00 +4°C° 0 mm 1 mps 762 mmHg 67%
    01:00 +2°C° 0 mm 2 mps 762 mmHg 69%
    02:00 +2°C° 0 mm 2 mps 762 mmHg 71%
    03:00 +1°C° 0 mm 2 mps 763 mmHg 73%
    04:00 +1°C° 0 mm 2 mps 763 mmHg 74%
    05:00 +1°C° 0 mm 2 mps 763 mmHg 75%
    06:00 +1°C° 0 mm 2 mps 763 mmHg 77%
    07:00 +2°C° 0 mm 2 mps 763 mmHg 72%
    08:00 +3°C° 0 mm 2 mps 763 mmHg 67%
    09:00 +4°C° 0 mm 2 mps 764 mmHg 62%
    10:00 +5°C° 0.1 mm 2 mps 764 mmHg 56%
    11:00 +6°C° 0.1 mm 2 mps 763 mmHg 51%
    12:00 +7°C° 0.1 mm 2 mps 763 mmHg 45%
    13:00 +7°C° 0 mm 2 mps 763 mmHg 43%
    14:00 +8°C° 0 mm 2 mps 763 mmHg 41%
    15:00 +8°C° 0 mm 2 mps 762 mmHg 40%
    16:00 +8°C° 0 mm 2 mps 762 mmHg 41%
    17:00 +8°C° 0 mm 2 mps 762 mmHg 43%
    18:00 +9°C° 0 mm 1 mps 762 mmHg 45%
    19:00 +7°C° 0 mm 2 mps 762 mmHg 48%
    20:00 +6°C° 0 mm 2 mps 763 mmHg 51%
    21:00 +5°C° 0 mm 2 mps 763 mmHg 55%
    22:00 +5°C° 0 mm 2 mps 762 mmHg 59%
    23:00 +4°C° 0 mm 2 mps 762 mmHg 63%

    25 March, Monday

    Time Temperature Precipitation Wind Pressure Humidity
    00:00 +4°C° 0 mm 2 mps 762 mmHg 67%
    01:00 +3°C° 0 mm 2 mps 762 mmHg 71%
    02:00 +3°C° 0 mm 2 mps 762 mmHg 75%
    03:00 +3°C° 0 mm 2 mps 761 mmHg 78%
    04:00 +3°C° 0 mm 2 mps 761 mmHg 79%
    05:00 +2°C° 0 mm 3 mps 761 mmHg 79%
    06:00 +2°C° 0 mm 3 mps 761 mmHg 80%
    07:00 +3°C° 0 mm 3 mps 761 mmHg 76%
    08:00 +4°C° 0 mm 4 mps 761 mmHg 71%
    09:00 +5°C° 0 mm 5 mps 761 mmHg 67%
    10:00 +6°C° 0 mm 5 mps 761 mmHg 66%
    11:00 +5°C° 0 mm 6 mps 761 mmHg 64%
    12:00 +7°C° 0 mm 6 mps 760 mmHg 63%
    13:00 +7°C° 0.2 mm 6 mps 760 mmHg 66%
    14:00 +7°C° 0.2 mm 6 mps 760 mmHg 69%
    15:00 +7°C° 0.2 mm 6 mps 760 mmHg 72%
    16:00 +7°C° 0.1 mm 5 mps 760 mmHg 69%
    17:00 +7°C° 0.1 mm 4 mps 760 mmHg 67%
    18:00 +8°C° 0.1 mm 3 mps 760 mmHg 64%
    19:00 +7°C° 0 mm 3 mps 760 mmHg 64%
    20:00 +7°C° 0 mm 2 mps 761 mmHg 64%
    21:00 +6°C° 0 mm 2 mps 761 mmHg 64%
    22:00 +6°C° 0 mm 2 mps 762 mmHg 65%
    23:00 +5°C° 0 mm 2 mps 762 mmHg 65%

    26 March, Tuesday

    Time Temperature Precipitation Wind Pressure Humidity
    00:00 +4°C° 0 mm 2 mps 762 mmHg 66%
    01:00 +4°C° 0 mm 2 mps 762 mmHg 68%
    02:00 +3°C° 0 mm 2 mps 762 mmHg 69%
    03:00 +2°C° 0 mm 2 mps 762 mmHg 71%
    04:00 +2°C° 0 mm 2 mps 763 mmHg 73%
    05:00 +2°C° 0 mm 2 mps 763 mmHg 75%
    06:00 +2°C° 0 mm 1 mps 763 mmHg 77%
    07:00 +3°C° 0 mm 2 mps 763 mmHg 73%
    08:00 +4°C° 0 mm 2 mps 764 mmHg 69%
    09:00 +5°C° 0 mm 2 mps 764 mmHg 64%
    10:00 +6°C° 0 mm 2 mps 764 mmHg 57%
    11:00 +7°C° 0 mm 2 mps 764 mmHg 50%
    12:00 +9°C° 0 mm 1 mps 764 mmHg 43%
    13:00 +10°C° 0 mm 1 mps 763 mmHg 42%
    14:00 +10°C° 0 mm 1 mps 763 mmHg 40%
    15:00 +10°C° 0 mm 1 mps 763 mmHg 39%
    16:00 +10°C° 0 mm 1 mps 763 mmHg 41%
    17:00 +10°C° 0 mm 1 mps 763 mmHg 43%
    18:00 +10°C° 0 mm 1 mps 763 mmHg 45%
    19:00 +9°C° 0 mm 1 mps 763 mmHg 48%
    20:00 +9°C° 0 mm 1 mps 763 mmHg 51%
    21:00 +7°C° 0 mm 2 mps 763 mmHg 55%
    22:00 +7°C° 0.1 mm 2 mps 763 mmHg 59%
    23:00 +8°C° 0.1 mm 1 mps 763 mmHg 63%

    27 March, Wednesday

    Time Temperature Precipitation Wind Pressure Humidity
    00:00 +7°C° 0.1 mm 1 mps 763 mmHg 67%
    01:00 +7°C° 0.1 mm 1 mps 763 mmHg 70%
    02:00 +6°C° 0.1 mm 1 mps 763 mmHg 72%
    03:00 +5°C° 0.1 mm 0 mps 763 mmHg 75%
    04:00 +6°C° 0 mm 1 mps 763 mmHg 75%
    05:00 +5°C° 0 mm 1 mps 764 mmHg 74%
    06:00 +5°C° 0 mm 1 mps 764 mmHg 74%
    07:00 +6°C° 0 mm 1 mps 764 mmHg 66%
    08:00 +7°C° 0 mm 1 mps 764 mmHg 59%
    09:00 +7°C° 0 mm 2 mps 764 mmHg 51%
    10:00 +8°C° 0 mm 2 mps 764 mmHg 46%
    11:00 +9°C° 0 mm 2 mps 764 mmHg 41%
    12:00 +10°C° 0 mm 3 mps 764 mmHg 36%
    13:00 +11°C° 0 mm 3 mps 764 mmHg 35%
    14:00 +11°C° 0 mm 3 mps 763 mmHg 34%
    15:00 +12°C° 0 mm 4 mps 763 mmHg 33%
    16:00 +11°C° 0 mm 4 mps 763 mmHg 36%
    17:00 +11°C° 0 mm 4 mps 763 mmHg 39%
    18:00 +10°C° 0 mm 4 mps 763 mmHg 42%
    19:00 +8°C° 0 mm 4 mps 763 mmHg 45%
    20:00 +7°C° 0 mm 4 mps 763 mmHg 48%
    21:00 +6°C° 0 mm 4 mps 763 mmHg 51%
    22:00 +6°C° 0 mm 4 mps 763 mmHg 54%
    23:00 +5°C° 0 mm 4 mps 763 mmHg 58%
    Show more